TITAN 3C TRANSTAGE DEB, 26765

Orbit data source: Space-Track

TITAN 3C TRANSTAGE DEB, 26765 is space debris in HEO originally from a launch on Tue, 21 Dec 1965 UTC launched from the Air Force Eastern Test Range (AFETR). Debris objects in space refer to the collection of defunct objects orbiting the Earth. Examples of debris include non-operational satellites, rocket bodies, and fragments generated from explosions, collisions, or faulty payload assembly.

Loading next visibility...
Identifier
26765, 1965-108AU
Orbit
HEO
Country
Flag of USUS
Related business
Manufacturer
Unknown
Mission
Spacecraft
Bus & Motor
Unknown
Mass
Unknown
Launch date (UTC)
1965-12-21 (61 years ago)
Launch vehicle
Unknown
Launch site
Air Force Eastern Test Range (AFETR)
Object type
Payload
Rocket body
Debris
Shape & HBR
Unknown shape, 0.1 m
Radar Cross Section
Medium (>0.1 m² and <1 m²)

Expand to show TLE details & history
Last TLE update: 1 month ago

TLE from 1 month ago
0 TITAN 3C TRANSTAGE DEB
1 26765U 65108AU  26130.95804448 -.00000103  00000-0  12955-2 0  9999
2 26765  27.1079 340.2893 6707847 215.4284 348.6911  2.68931829 21045
Epoch: 2026-05-10T22:59Z
TLE epoch observation values (Epoch: 2026-05-10T22:59:35.043Z)
Latitude
12.98741°
Longitude
-80.03628°
Altitude
2,967.885 km
Speed
8.189 km/s
True Right ascension
08h 54m 27s
True Declination
12° 55' 48"
Sunlit
Object was in daylight at epoch
Visualization orbit readout
Latitude
Unknown
Longitude
Unknown
Altitude
Unknown
Speed
Unknown
Apparent Right ascension
Unknown
Apparent Declination
Unknown
Sunlit
N/A
Visualization observer readout
Local Sidereal Time
18:07:18
Azimuth
Unknown
Elevation
Unknown
Doppler factor
Unknown
Orbital elements
Apogee altitude
30,122.081 km
Perigee altitude
813.951 km
Semi-major axis
21,846.153 km
Eccentricity
0.67078
Inclination
27.1079°
RAAN
340.2893°
Arg. of periapsis
215.4284°
True anomaly
295.58641°
Mean anomaly
348.6911°
Eccentric anomaly
328.75708°
Mean motion
0.67217 °/min
Orbital period
535.58 mins
BSTAR
0.0012955
Loading maneuver chart data...
Computing Atmospheric mass density...

Documentation

Showing up to 5 results
|